Location: Kings Park
(40.8862°N, 73.2573°W)
Time: 06:07:38
(UTC+00:00)

Cosmos 2369 - Pass Details

Date: 29 October 2020
Orbit: 841 x 854 km, 71.0° (Epoch: 27 November)

Event Time Altitude Azimuth Distance (km) Brightness Sun altitude
Rises 23:30:48 0° 206° (SSW) 3,408 7.2 -19.2°
Reaches altitude 10° 23:33:15 10° 208° (SSW) 2,475 6.5 -19.6°
Maximum altitude 23:38:57 77° 294° (WNW) 879 3.8 -20.7°
Drops below altitude 10° 23:44:40 10° 21° (NNE) 2,483 5.9 -21.8°
Enters shadow 23:45:11 - 21° (NNE) 2,681 6.1 -21.9°
